| time (UTC) | temp C | wind direction | speed KPH | gust KPH | rain 1hr cm | rain 24hr cm | rain mn cm | humidity % | barometer mb |
| 20260502194037 | 8 | 0 | 0.0 | 1.6 | 0.00 | 0.00 | 0.00 | 95 | 1034.5 |
| 20260502193539 | 8 | 166 | 0.0 | 1.6 | 0.00 | 0.00 | 0.00 | 95 | 1034.4 |
| 20260502193054 | 8 | 0 | 0.0 | 0.0 | 0.00 | 0.00 | 0.00 | 95 | 1034.4 |
| 20260502192539 | 8 | 0 | 0.0 | 0.0 | 0.00 | 0.00 | 0.00 | 95 | 1034.4 |
| 20260502192038 | 8 | 0 | 0.0 | 1.6 | 0.00 | 0.00 | 0.00 | 95 | 1034.4 |
| 20260502191553 | 7 | 0 | 0.0 | 1.6 | 0.00 | 0.00 | 0.00 | 95 | 1034.3 |
| 20260502191038 | 7 | 167 | 0.0 | 1.6 | 0.00 | 0.00 | 0.00 | 95 | 1034.3 |
| 20260502190538 | 7 | 0 | 0.0 | 1.6 | 0.00 | 0.00 | 0.00 | 95 | 1034.2 |
| 20260502190049 | 7 | 0 | 0.0 | 1.6 | 0.00 | 0.00 | 0.00 | 95 | 1034.3 |
| 20260502185538 | 7 | 0 | 0.0 | 0.0 | 0.00 | 0.00 | 0.00 | 94 | 1034.2 |
| 20260502185038 | 7 | 168 | 0.0 | 1.6 | 0.00 | 0.00 | 0.00 | 94 | 1034.2 |
| 20260502184551 | 7 | 0 | 0.0 | 1.6 | 0.00 | 0.00 | 0.00 | 95 | 1034.2 |
| 20260502184039 | 7 | 168 | 0.0 | 1.6 | 0.00 | 0.00 | 0.00 | 95 | 1034.2 |
| 20260502183539 | 7 | 0 | 0.0 | 3.2 | 0.00 | 0.00 | 0.00 | 94 | 1034.3 |
| 20260502183048 | 7 | 0 | 0.0 | 3.2 | 0.00 | 0.00 | 0.00 | 94 | 1034.3 |
| 20260502182538 | 7 | 218 | 0.0 | 3.2 | 0.00 | 0.00 | 0.00 | 95 | 1034.3 |
| 20260502182038 | 7 | 92 | 1.6 | 4.8 | 0.00 | 0.00 | 0.00 | 95 | 1034.3 |
| 20260502181552 | 7 | 92 | 1.6 | 4.8 | 0.00 | 0.00 | 0.00 | 95 | 1034.2 |
| 20260502181038 | 7 | 0 | 0.0 | 3.2 | 0.00 | 0.00 | 0.00 | 95 | 1034.2 |
| 20260502180538 | 7 | 91 | 1.6 | 3.2 | 0.00 | 0.00 | 0.00 | 95 | 1034.1 |
| 20260502164039 | 7 | 0 | 0.0 | 0.0 | 0.00 | 0.00 | 0.00 | 94 | 1034.0 |
| 20260502163539 | 7 | 0 | 0.0 | 0.0 | 0.00 | 0.00 | 0.00 | 94 | 1034.1 |
| 20260502163053 | 7 | 0 | 0.0 | 0.0 | 0.00 | 0.00 | 0.00 | 94 | 1034.1 |
| 20260502162539 | 7 | 0 | 0.0 | 4.8 | 0.00 | 0.00 | 0.00 | 94 | 1034.0 |
| 20260502162042 | 7 | 0 | 0.0 | 4.8 | 0.00 | 0.00 | 0.00 | 94 | 1034.1 |
| 20260502161546 | 7 | 89 | 1.6 | 4.8 | 0.00 | 0.00 | 0.00 | 94 | 1034.0 |
| 20260502161038 | 7 | 83 | 0.0 | 6.4 | 0.00 | 0.00 | 0.00 | 95 | 1034.0 |
| 20260502160539 | 7 | 0 | 0.0 | 6.4 | 0.00 | 0.00 | 0.00 | 95 | 1034.0 |
| 20260502152039 | 6 | 90 | 1.6 | 4.8 | 0.00 | 0.00 | 0.00 | 95 | 1034.2 |
| 20260502151557 | 6 | 109 | 1.6 | 4.8 | 0.00 | 0.00 | 0.00 | 95 | 1034.2 |
| 20260502151038 | 6 | 119 | 3.2 | 4.8 | 0.00 | 0.00 | 0.00 | 95 | 1034.3 |
| 20260502150538 | 6 | 0 | 1.6 | 4.8 | 0.00 | 0.00 | 0.00 | 95 | 1034.3 |
| 20260502130542 | 6 | 0 | 0.0 | 1.6 | 0.00 | 0.00 | 0.00 | 96 | 1034.4 |
| 20260502123543 | 5 | 0 | 0.0 | 0.0 | 0.00 | 0.00 | 0.00 | 95 | 1034.3 |
| 20260502123102 | 5 | 0 | 0.0 | 0.0 | 0.00 | 0.00 | 0.00 | 95 | 1034.2 |
| 20260502122539 | 5 | 0 | 0.0 | 0.0 | 0.00 | 0.00 | 0.00 | 96 | 1034.2 |
| 20260502122040 | 5 | 0 | 0.0 | 0.0 | 0.00 | 0.00 | 0.00 | 95 | 1034.2 |
| 20260502121549 | 5 | 0 | 0.0 | 0.0 | 0.00 | 0.00 | 0.00 | 95 | 1034.1 |
| 20260502121041 | 6 | 0 | 0.0 | 0.0 | 0.00 | 0.00 | 0.00 | 95 | 1034.1 |
| 20260502120539 | 6 | 0 | 0.0 | 0.0 | 0.00 | 0.00 | 0.00 | 95 | 1034.1 |
| 20260502115539 | 6 | 0 | 0.0 | 1.6 | 0.00 | 0.00 | 0.00 | 96 | 1033.9 |
| 20260502115039 | 6 | 0 | 0.0 | 1.6 | 0.00 | 0.00 | 0.00 | 96 | 1033.8 |
| 20260502114544 | 6 | 88 | 0.0 | 1.6 | 0.00 | 0.00 | 0.00 | 95 | 1033.8 |
| 20260502114039 | 6 | 88 | 0.0 | 1.6 | 0.00 | 0.00 | 0.00 | 94 | 1033.8 |
| 20260502113539 | 6 | 0 | 0.0 | 1.6 | 0.00 | 0.00 | 0.00 | 95 | 1033.8 |
| 20260502113053 | 6 | 88 | 0.0 | 1.6 | 0.00 | 0.00 | 0.00 | 96 | 1033.8 |
| 20260502112538 | 6 | 88 | 0.0 | 1.6 | 0.00 | 0.00 | 0.00 | 96 | 1033.7 |
| 20260502112035 | 6 | 88 | 0.0 | 1.6 | 0.00 | 0.00 | 0.00 | 95 | 1033.7 |
| 20260502111547 | 6 | 0 | 0.0 | 1.6 | 0.00 | 0.00 | 0.00 | 96 | 1033.7 |
| 20260502111038 | 6 | 0 | 0.0 | 1.6 | 0.00 | 0.00 | 0.00 | 95 | 1033.7 |
| 20260502110539 | 6 | 88 | 0.0 | 3.2 | 0.00 | 0.00 | 0.00 | 96 | 1033.7 |
| 20260502110053 | 5 | 88 | 0.0 | 3.2 | 0.00 | 0.00 | 0.00 | 94 | 1033.7 |
| 20260502105536 | 6 | 88 | 1.6 | 3.2 | 0.00 | 0.00 | 0.00 | 95 | 1033.7 |
| 20260502105036 | 6 | 88 | 1.6 | 1.6 | 0.00 | 0.00 | 0.00 | 95 | 1033.6 |
| 20260502104549 | 6 | 84 | 0.0 | 4.8 | 0.00 | 0.00 | 0.00 | 95 | 1033.6 |
| 20260502104038 | 6 | 81 | 1.6 | 4.8 | 0.00 | 0.00 | 0.00 | 95 | 1033.6 |
| 20260502103540 | 6 | 77 | 1.6 | 3.2 | 0.00 | 0.00 | 0.00 | 94 | 1033.7 |
| 20260502103045 | 6 | 71 | 1.6 | 3.2 | 0.00 | 0.00 | 0.00 | 95 | 1033.6 |
| 20260502102538 | 6 | 71 | 1.6 | 4.8 | 0.00 | 0.00 | 0.00 | 95 | 1033.7 |
| 20260502102038 | 6 | 76 | 1.6 | 4.8 | 0.00 | 0.00 | 0.00 | 95 | 1033.7 |
| 20260502101559 | 6 | 82 | 1.6 | 3.2 | 0.00 | 0.00 | 0.00 | 96 | 1033.7 |
| 20260502101037 | 6 | 72 | 0.0 | 1.6 | 0.00 | 0.00 | 0.00 | 95 | 1033.8 |
| 20260502100538 | 6 | 0 | 0.0 | 1.6 | 0.00 | 0.00 | 0.00 | 95 | 1033.7 |
| 20260502100113 | 6 | 0 | 0.0 | 1.6 | 0.00 | 0.00 | 0.00 | 95 | 1033.7 |
| 20260502091041 | 6 | 69 | 1.6 | 3.2 | 0.00 | 0.00 | 0.00 | 95 | 1033.2 |
| 20260502090538 | 6 | 0 | 0.0 | 3.2 | 0.00 | 0.00 | 0.00 | 94 | 1033.2 |
| 20260502090528 | 6 | 0 | 0.0 | 4.8 | 0.00 | 0.00 | 0.00 | 94 | 1033.2 |
| 20260502010046 | 16 | 265 | 6.4 | 16.1 | 0.00 | 0.00 | 0.00 | 66 | 1033.4 |
| 20260502005540 | 16 | 299 | 9.7 | 20.9 | 0.00 | 0.00 | 0.00 | 67 | 1033.7 |
| 20260502005039 | 16 | 232 | 8.0 | 20.9 | 0.00 | 0.00 | 0.00 | 69 | 1033.6 |
| 20260502004558 | 16 | 266 | 9.7 | 17.7 | 0.00 | 0.00 | 0.00 | 70 | 1033.6 |
| 20260502004039 | 16 | 245 | 8.0 | 17.7 | 0.00 | 0.00 | 0.00 | 70 | 1033.6 |
| 20260502003539 | 16 | 292 | 9.7 | 17.7 | 0.00 | 0.00 | 0.00 | 68 | 1033.6 |
| 20260502003042 | 16 | 236 | 8.0 | 14.5 | 0.00 | 0.00 | 0.00 | 71 | 1033.7 |
| 20260502002538 | 16 | 282 | 8.0 | 14.5 | 0.00 | 0.00 | 0.00 | 69 | 1033.6 |
| 20260502002038 | 16 | 247 | 8.0 | 14.5 | 0.00 | 0.00 | 0.00 | 69 | 1033.9 |
| 20260502001546 | 16 | 234 | 4.8 | 14.5 | 0.00 | 0.00 | 0.00 | 72 | 1034.0 |
| 20260502001040 | 15 | 254 | 6.4 | 12.9 | 0.00 | 0.00 | 0.00 | 72 | 1034.2 |
| 20260502000536 | 15 | 242 | 6.4 | 14.5 | 0.00 | 0.00 | 0.00 | 71 | 1034.1 |
| 20260502000048 | 15 | 240 | 8.0 | 14.5 | 0.00 | 0.00 | 0.00 | 69 | 1034.1 |
| 20260501235539 | 15 | 244 | 4.8 | 16.1 | 0.00 | 0.00 | 0.00 | 75 | 1034.2 |
| 20260501235039 | 15 | 223 | 8.0 | 16.1 | 0.00 | 0.00 | 0.00 | 74 | 1034.2 |
| 20260501234549 | 15 | 297 | 8.0 | 12.9 | 0.00 | 0.00 | 0.00 | 73 | 1034.3 |
| 20260501234042 | 15 | 237 | 3.2 | 12.9 | 0.00 | 0.00 | 0.00 | 74 | 1034.3 |
| 20260501233539 | 15 | 238 | 8.0 | 12.9 | 0.00 | 0.00 | 0.00 | 73 | 1034.3 |
| 20260501233043 | 15 | 284 | 6.4 | 12.9 | 0.00 | 0.00 | 0.00 | 76 | 1034.3 |
| 20260501232543 | 15 | 269 | 4.8 | 12.9 | 0.00 | 0.00 | 0.00 | 76 | 1034.5 |
| 20260501232038 | 14 | 225 | 6.4 | 16.1 | 0.00 | 0.00 | 0.00 | 76 | 1034.6 |
| 20260501231554 | 14 | 230 | 6.4 | 16.1 | 0.00 | 0.00 | 0.00 | 76 | 1034.6 |
| 20260501231041 | 14 | 236 | 4.8 | 11.3 | 0.00 | 0.00 | 0.00 | 78 | 1034.7 |
| 20260501230538 | 13 | 321 | 0.0 | 11.3 | 0.00 | 0.00 | 0.00 | 81 | 1034.7 |
| 20260501230057 | 13 | 265 | 3.2 | 11.3 | 0.00 | 0.00 | 0.00 | 80 | 1034.7 |
| 20260501225539 | 13 | 245 | 1.6 | 4.8 | 0.00 | 0.00 | 0.00 | 82 | 1034.7 |
| 20260501225039 | 13 | 244 | 1.6 | 6.4 | 0.00 | 0.00 | 0.00 | 81 | 1034.7 |
| 20260501224547 | 12 | 240 | 3.2 | 6.4 | 0.00 | 0.00 | 0.00 | 81 | 1034.8 |
| 20260501224039 | 12 | 333 | 3.2 | 6.4 | 0.00 | 0.00 | 0.00 | 81 | 1034.7 |
| 20260501223539 | 12 | 257 | 3.2 | 6.4 | 0.00 | 0.00 | 0.00 | 82 | 1034.7 |
| 20260501223053 | 12 | 240 | 1.6 | 6.4 | 0.00 | 0.00 | 0.00 | 82 | 1034.7 |
| 20260501222539 | 11 | 240 | 3.2 | 6.4 | 0.00 | 0.00 | 0.00 | 82 | 1034.8 |
| 20260501222039 | 11 | 241 | 1.6 | 6.4 | 0.00 | 0.00 | 0.00 | 82 | 1034.8 |
| 20260501221555 | 11 | 242 | 3.2 | 6.4 | 0.00 | 0.00 | 0.00 | 83 | 1034.8 |
| 20260501221046 | 11 | 236 | 1.6 | 4.8 | 0.00 | 0.00 | 0.00 | 84 | 1034.8 |
| 20260501220542 | 11 | 236 | 0.0 | 4.8 | 0.00 | 0.00 | 0.00 | 85 | 1034.8 |
| 20260501220055 | 11 | 236 | 3.2 | 4.8 | 0.00 | 0.00 | 0.00 | 83 | 1034.8 |
| 20260501215543 | 11 | 0 | 0.0 | 1.6 | 0.00 | 0.00 | 0.00 | 85 | 1034.8 |
| 20260501215039 | 11 | 93 | 0.0 | 1.6 | 0.00 | 0.00 | 0.00 | 85 | 1034.8 |
| 20260501214555 | 11 | 0 | 0.0 | 1.6 | 0.00 | 0.00 | 0.00 | 88 | 1034.8 |
| 20260501214039 | 10 | 0 | 0.0 | 1.6 | 0.00 | 0.00 | 0.00 | 89 | 1034.9 |
| 20260501213539 | 10 | 93 | 0.0 | 1.6 | 0.00 | 0.00 | 0.00 | 90 | 1034.9 |
| 20260501213047 | 10 | 0 | 0.0 | 1.6 | 0.00 | 0.00 | 0.00 | 91 | 1034.9 |
| 20260501212539 | 10 | 0 | 0.0 | 1.6 | 0.00 | 0.00 | 0.00 | 93 | 1034.8 |
| 20260501212039 | 9 | 93 | 0.0 | 1.6 | 0.00 | 0.00 | 0.00 | 94 | 1035.0 |
| 20260501211558 | 9 | 0 | 0.0 | 1.6 | 0.00 | 0.00 | 0.00 | 95 | 1035.0 |
| 20260501211040 | 8 | 86 | 0.0 | 1.6 | 0.00 | 0.00 | 0.00 | 95 | 1035.1 |
| 20260501210540 | 8 | 0 | 0.0 | 1.6 | 0.00 | 0.00 | 0.00 | 96 | 1035.2 |
| 20260501210048 | 8 | 0 | 0.0 | 1.6 | 0.00 | 0.00 | 0.00 | 96 | 1035.3 |
| 20260501205539 | 7 | 0 | 0.0 | 1.6 | 0.00 | 0.00 | 0.00 | 97 | 1035.3 |
| 20260501205039 | 7 | 82 | 0.0 | 1.6 | 0.00 | 0.00 | 0.00 | 98 | 1035.3 |
| 20260501204629 | 7 | 0 | 0.0 | 0.0 | 0.00 | 0.00 | 0.00 | 98 | 1035.3 |
| 20260501204039 | 7 | 0 | 0.0 | 0.0 | 0.00 | 0.00 | 0.00 | 98 | 1035.3 |
| 20260501203538 | 6 | 0 | 0.0 | 0.0 | 0.00 | 0.00 | 0.00 | 98 | 1035.3 |
| 20260501203050 | 6 | 0 | 0.0 | 0.0 | 0.00 | 0.00 | 0.00 | 98 | 1035.3 |
| 20260501202539 | 6 | 0 | 0.0 | 0.0 | 0.00 | 0.00 | 0.00 | 98 | 1035.3 |
| 20260501202039 | 5 | 0 | 0.0 | 0.0 | 0.00 | 0.00 | 0.00 | 98 | 1035.3 |
| 20260501201550 | 4 | 0 | 0.0 | 1.6 | 0.00 | 0.00 | 0.00 | 98 | 1035.2 |
| 20260501201041 | 3 | 0 | 0.0 | 1.6 | 0.00 | 0.00 | 0.00 | 97 | 1035.2 |
| 20260501200539 | 3 | 82 | 0.0 | 3.2 | 0.00 | 0.00 | 0.00 | 97 | 1035.0 |
| 20260501200047 | 2 | 0 | 0.0 | 3.2 | 0.00 | 0.00 | 0.00 | 97 | 1034.9 |
| 20260501195539 | 2 | 0 | 0.0 | 3.2 | 0.00 | 0.00 | 0.00 | 97 | 1035.0 |
| 20260501195039 | 2 | 0 | 0.0 | 0.0 | 0.00 | 0.00 | 0.00 | 97 | 1034.9 |
| 20260501194552 | 1 | 0 | 0.0 | 0.0 | 0.00 | 0.00 | 0.00 | 96 | 1034.7 |